Tracking 19651 objects as of 23-Apr-2019
HD Live streaming from Space Station
objects crossing your sky now

COSMOS 2407

Track COSMOS 2407 now!
10-day predictions
COSMOS 2407 is classified as:


NORAD ID: 28380
Int'l Code: 2004-028A
Perigee: 956.0 km
Apogee: 1,014.0 km
Inclination: 83.0 °
Period: 104.6 minutes
Semi major axis: 7356 km
RCS: 1.9044 m2 (large)
Launch date: July 22, 2004
Source: Commonwealth of Independent States (former USSR) (CIS)
Launch site: PLESETSK MISSILE AND SPACE COMPLEX (PKMTR)

Normally part of a six-satellite constellation.
aabbcc
Your satellite tracking list
Your tracking list is empty




NASA's NSSDC Master Catalog

Two Line Element Set (TLE):
1 28380U 04028A   19112.83846230  .00000014  00000-0 -12623-5 0  9998
2 28380  82.9640 208.9206 0039459 359.6211   0.4903 13.76063316740784
Source of the keplerian elements: AFSPC